Waarnemingen

Advertentie
Mijn weer
Freiburg, Duitsland (10803): temperatuur & dauwpunt: 18.02.2017 16:00:00 - 24.02.2017 16:00:00 (CET)Freiburg, Duitsland (10803): temperatuur 5cm & temperatuur -5cm: 18.02.2017 16:00:00 - 24.02.2017 16:00:00 (CET)Freiburg, Duitsland (10803): temperatuur -20cm & temperatuur -100cm: 18.02.2017 16:00:00 - 24.02.2017 16:00:00 (CET)Freiburg, Duitsland (10803): windsnelheid & windstoten: 18.02.2017 16:00:00 - 24.02.2017 16:00:00 (CET)Freiburg, Duitsland (10803): windrichting: 18.02.2017 16:00:00 - 24.02.2017 16:00:00 (CET)Freiburg, Duitsland (10803): luchtdruk: 18.02.2017 16:00:00 - 24.02.2017 16:00:00 (CET)Freiburg, Duitsland (10803): zicht: 18.02.2017 16:00:00 - 24.02.2017 16:00:00 (CET)Freiburg, Duitsland (10803): Zonneschijnduur: 18.02.2017 16:00:00 - 24.02.2017 16:00:00 (CET)Freiburg, Duitsland (10803): neerslag: 18.02.2017 16:00:00 - 24.02.2017 16:00:00 (CET)
Datum & Tijd tt [°C] td [°C] tt 5cm [°C] tt -5cm [°C] tt -20cm [°C] tt -100cm [°C] ff [km/u] ff [kn] fx [km/u] fx [kn] dd ppp [hPa] vv [km] sd [min] rr [mm]
24.02.2017 16:00:00 5,3 1,8 4,7 6,3 6,6 6,4 12 6 19 10 ZO 1016,3 46 0 0,0
24.02.2017 15:00:00 5,3 1,9 5,0 6,4 6,5 6,3 9 5 13 7 ZZO 1016,0 70 0 0,1
24.02.2017 14:00:00 3,9 1,7 3,7 6,0 6,5 6,3 11 6 24 13 O 1016,2 59 0 0,3
24.02.2017 13:00:00 5,5 1,6 7,0 7,1 6,5 6,3 10 5 18 10 N 1015,9 62 0 0,0
24.02.2017 12:00:00 4,3 1,8 4,6 6,0 6,4 6,3 14 8 35 19 N 1015,8 70 0 0,0
24.02.2017 11:00:00 7,1 1,6 7,4 6,3 6,4 6,3 14 8 21 11 ZW 1015,1 49 0 0,0
24.02.2017 10:00:00 6,3 2,2 6,3 5,7 6,4 6,3 13 7 17 9 ZW 1014,9 42 0 0,0
24.02.2017 09:00:00 6,1 2,5 6,0 5,0 6,5 6,3 8 4 13 7 WZW 1014,2 45 0 0,0
24.02.2017 08:00:00 5,5 2,2 4,5 4,3 6,7 6,3 10 5 19 10 WZW 1013,6 41 0 0,0
24.02.2017 07:00:00 4,7 1,8 2,2 4,3 6,9 6,3 10 6 15 8 WZW 1012,8 49 0 0,0
24.02.2017 06:00:00 5,9 2,5 4,0 4,9 7,1 6,3 8 5 18 10 WZW 1012,4 59 0 0,0
24.02.2017 05:00:00 6,1 2,9 4,1 5,5 7,3 6,3 11 6 23 13 ZW 1011,6 57 0 0,0
24.02.2017 04:00:00 7,4 3,2 6,5 6,0 7,4 6,3 16 9 32 17 ZW 1010,9 63 0 0,0
24.02.2017 03:00:00 7,6 3,2 6,6 6,2 7,6 6,2 18 10 34 18 WZW 1010,3 63 0 0,0
24.02.2017 02:00:00 8,0 3,1 6,9 6,5 7,7 6,2 24 13 33 18 ZW 1009,4 70 0 0,0
24.02.2017 01:00:00 8,2 3,1 5,8 7,0 7,9 6,2 21 11 31 17 ZZW 1008,3 70 0 0,0
24.02.2017 00:00:00 7,5 4,9 6,2 7,6 7,9 6,2 13 7 53 29 WZW 1007,4 70 0 2,8
23.02.2017 23:00:00 10,9 6,9 10,1 8,2 8,0 6,2 35 19 50 27 ZZW 1005,9 70 0 0,0
23.02.2017 22:00:00 11,5 6,2 10,7 8,2 8,0 6,2 34 19 56 30 ZW 1006,3 70 0 0,0
23.02.2017 21:00:00 12,7 4,0 11,6 8,2 8,1 6,2 28 15 48 26 WZW 1005,4 70 0 0,0
23.02.2017 20:00:00 14,3 2,0 12,7 8,4 8,1 6,2 29 15 45 24 WZW 1004,5 70 0 0,0
23.02.2017 19:00:00 14,6 2,1 12,9 8,6 8,2 6,2 25 14 55 30 ZW 1003,9 58 0 0,0
23.02.2017 18:00:00 15,6 1,1 14,0 9,0 8,2 6,2 35 19 69 37 ZW 1003,4 55 7 0,0
23.02.2017 17:00:00 17,2 -0,2 15,6 9,6 8,1 6,2 45 24 70 38 ZW 1002,9 48 5 0,0
23.02.2017 16:00:00 18,2 -0,8 16,6 10,8 8,0 6,1 41 22 66 36 ZW 1002,7 55 45 0,0
23.02.2017 15:00:00 18,3 -1,2 16,7 10,3 7,8 6,1 47 25 75 41 ZW 1003,2 45 20 0,0
23.02.2017 14:00:00 17,9 1,3 17,7 10,3 7,6 6,1 37 20 60 33 ZW 1004,3 60 10 0,0
23.02.2017 13:00:00 15,3 3,0 14,9 10,3 7,3 6,1 32 18 59 32 ZZW 1006,7 42 24 0,0
23.02.2017 12:00:00 13,9 3,1 14,7 10,2 7,0 6,1 36 19 56 30 ZZW 1008,2 40 45 0,0
23.02.2017 11:00:00 12,9 3,4 14,2 9,2 6,7 6,1 32 18 50 27 ZZW 1008,8 34 36 0,0
23.02.2017 10:00:00 11,0 5,0 12,4 8,9 6,4 6,1 26 14 38 20 ZW 1009,3 42 56 0,0
23.02.2017 09:00:00 9,1 4,8 9,6 6,5 6,4 6,1 25 14 37 20 ZW 1010,4 37 50 0,0
23.02.2017 08:00:00 8,2 4,6 7,1 5,4 6,5 6,1 21 11 34 18 ZW 1011,1 32 0 0,0
23.02.2017 07:00:00 8,3 4,7 6,7 5,5 6,6 6,1 23 12 39 21 ZZW 1011,9 30 0 0,0
23.02.2017 06:00:00 8,4 4,7 6,5 5,8 6,7 6,1 25 13 44 24 ZZW 1012,9 30 0 0,0
23.02.2017 05:00:00 9,1 5,2 7,6 5,9 6,8 6,1 29 16 50 27 ZZW 1013,3 22 0 0,0
23.02.2017 04:00:00 9,2 5,1 7,6 6,0 6,8 6,0 27 15 40 22 ZZW 1014,1 26 0 0,0
23.02.2017 03:00:00 9,3 4,7 7,6 6,1 6,9 6,0 22 12 44 24 ZZW 1014,7 43 0 0,0
23.02.2017 02:00:00 9,2 4,5 7,7 6,2 7,0 6,0 22 12 44 24 ZZW 1015,3 50 0 0,0
23.02.2017 01:00:00 9,0 4,5 7,5 6,4 7,1 6,0 31 17 45 24 ZZW 1015,5 53 0 0,0
23.02.2017 00:00:00 9,3 4,2 8,3 6,4 7,2 6,0 26 14 53 29 ZZW 1016,3 59 0 0,0
22.02.2017 23:00:00 9,2 3,8 8,1 6,5 7,3 6,0 26 14 45 25 ZZW 1016,6 63 0 0,0
22.02.2017 22:00:00 9,5 3,6 8,4 6,7 7,4 6,0 23 12 51 27 ZZW 1017,0 69 0 0,0
22.02.2017 21:00:00 9,5 3,7 8,5 6,8 7,5 6,0 26 14 47 26 ZZW 1017,3 60 0 0,0
22.02.2017 20:00:00 9,6 3,9 8,7 7,1 7,6 6,0 25 13 43 23 ZZW 1017,5 63 0 0,0
22.02.2017 19:00:00 9,8 4,4 8,9 7,3 7,6 6,0 25 13 48 26 ZW 1017,4 53 0 0,0
22.02.2017 18:00:00 10,0 4,6 9,2 7,6 7,7 5,9 27 15 47 25 ZW 1017,2 65 0 0,0
22.02.2017 17:00:00 10,2 4,6 9,5 7,8 7,8 5,9 27 14 48 26 ZW 1017,2 70 0 0,0
22.02.2017 16:00:00 10,3 4,7 9,6 8,1 7,8 5,9 27 15 49 26 ZZW 1017,1 66 0 0,0
22.02.2017 15:00:00 10,3 5,0 9,9 8,3 7,8 5,9 32 17 50 27 ZZW 1017,6 68 0 0,0
22.02.2017 14:00:00 10,5 5,1 10,0 8,5 7,8 5,9 29 16 51 28 ZW 1018,3 65 0 0,0
22.02.2017 13:00:00 10,4 5,5 10,2 9,1 7,7 5,9 32 17 55 30 ZZW 1018,8 70 6 0,0
22.02.2017 12:00:00 11,2 6,0 12,4 9,4 7,6 5,9 37 20 57 31 ZW 1018,6 69 4 0,0
22.02.2017 11:00:00 11,0 6,0 11,4 9,0 7,5 5,9 33 18 50 27 ZZW 1018,7 70 0 0,0
22.02.2017 10:00:00 10,6 6,1 10,5 8,2 7,5 5,9 29 16 48 26 ZW 1018,7 70 0 0,0
22.02.2017 09:00:00 10,4 5,9 9,7 7,8 7,5 5,9 29 16 56 30 ZZW 1018,6 60 0 0,0
22.02.2017 08:00:00 10,7 5,6 9,8 7,8 7,6 5,9 34 19 52 28 ZZW 1018,2 70 0 0,0
22.02.2017 07:00:00 10,5 6,2 9,5 7,9 7,6 5,8 27 15 49 26 ZZW 1017,5 70 0 0,0
22.02.2017 06:00:00 10,8 6,7 9,8 8,2 7,7 5,8 30 16 51 28 ZZW 1018,0 64 0 0,0
22.02.2017 05:00:00 11,0 7,2 10,0 8,3 7,7 5,8 31 17 48 26 ZZW 1018,1 60 0 0,0
22.02.2017 04:00:00 10,7 7,8 9,9 8,4 7,7 5,8 27 15 46 25 ZZW 1018,6 41 0 0,0
22.02.2017 03:00:00 10,7 8,0 9,9 8,5 7,7 5,8 27 14 40 22 ZZW 1019,2 54 0 0,0
22.02.2017 02:00:00 10,9 8,1 10,1 8,5 7,7 5,8 23 13 39 21 ZZW 1019,7 70 0 0,0
22.02.2017 01:00:00 11,0 8,2 10,2 8,6 7,7 5,8 27 15 37 20 ZZW 1020,0 70 0 0,0
22.02.2017 00:00:00 11,0 8,5 10,2 8,7 7,7 5,8 26 14 40 22 ZW 1020,2 60 0 0,0
21.02.2017 23:00:00 11,1 8,6 10,3 8,7 7,7 5,8 24 13 36 20 ZW 1020,2 58 0 0,0
21.02.2017 22:00:00 11,2 8,3 10,4 8,7 7,7 5,8 24 13 40 22 ZZW 1020,3 68 0 0,0
21.02.2017 21:00:00 11,2 8,4 10,4 8,8 7,7 5,8 24 13 40 22 ZZW 1020,4 67 0 0,0
21.02.2017 20:00:00 11,3 8,5 10,6 8,9 7,8 5,8 27 15 45 24 ZZW 1020,5 70 0 0,0
21.02.2017 19:00:00 11,2 8,6 10,4 9,1 7,7 5,8 25 13 40 22 ZZW 1020,5 70 0 0,0
21.02.2017 18:00:00 11,3 8,7 9,9 9,4 7,7 5,8 28 15 49 26 ZZW 1020,2 63 0 0,0
21.02.2017 17:00:00 12,0 8,4 11,5 9,8 7,6 5,8 31 17 45 24 ZZW 1019,9 70 0 0,0
21.02.2017 16:00:00 12,6 8,4 12,3 9,8 7,4 5,8 31 17 48 26 ZZW 1019,6 70 0 0,0
21.02.2017 15:00:00 12,2 8,2 11,8 9,9 7,3 5,7 24 13 41 22 ZZW 1019,8 70 0 0,0
21.02.2017 14:00:00 12,0 8,2 11,7 9,5 7,1 5,7 26 14 41 22 ZZW 1020,1 70 0 0,0
21.02.2017 13:00:00 11,7 8,0 11,4 9,5 6,9 5,7 27 15 43 23 ZW 1020,7 70 0 0,0
21.02.2017 12:00:00 11,4 7,7 11,5 9,4 6,7 5,7 29 15 42 23 ZZW 1020,8 70 0 0,0
21.02.2017 11:00:00 10,6 7,6 10,7 8,6 6,5 5,7 27 15 49 27 ZZW 1020,9 70 0 0,0
21.02.2017 10:00:00 10,2 7,5 10,1 8,0 6,4 5,7 31 17 46 25 ZZW 1020,6 70 0 0,0
21.02.2017 09:00:00 9,7 7,6 9,3 7,5 6,4 5,7 28 15 44 24 ZZW 1020,8 70 0 0,0
21.02.2017 08:00:00 9,7 7,3 9,0 7,3 6,3 5,7 30 16 48 26 ZW 1020,4 70 0 0,0
21.02.2017 07:00:00 9,6 7,3 8,8 7,2 6,3 5,7 29 16 47 25 ZZW 1020,4 70 0 0,0
21.02.2017 06:00:00 9,6 6,9 8,8 7,0 6,2 5,7 27 15 49 26 ZZW 1020,2 70 0 0,0
21.02.2017 05:00:00 9,5 6,6 8,8 6,9 6,2 5,7 27 15 50 27 ZZW 1020,9 63 0 0,0
21.02.2017 04:00:00 9,2 6,3 8,4 6,8 6,2 5,7 25 14 43 23 ZZW 1021,1 45 0 0,0
21.02.2017 03:00:00 9,1 6,2 8,4 6,7 6,1 5,7 29 15 42 23 ZZW 1021,9 35 0 0,0
21.02.2017 02:00:00 8,9 6,0 8,2 6,6 6,1 5,7 29 16 44 24 ZZW 1022,4 23 0 0,0
21.02.2017 01:00:00 8,7 5,8 8,0 6,6 6,1 5,7 32 17 44 24 ZZW 1022,5 18 0 0,0
21.02.2017 00:00:00 8,8 5,4 7,9 6,5 6,1 5,7 27 14 45 25 ZZW 1022,9 17 0 0,0
20.02.2017 23:00:00 9,0 5,1 7,9 6,5 6,2 5,7 27 15 44 24 ZZW 1022,9 18 0 0,0
20.02.2017 22:00:00 8,5 5,5 6,8 6,5 6,2 5,7 23 13 42 23 Z 1023,1 15 0 1,1
20.02.2017 21:00:00 8,2 5,7 6,6 6,5 6,2 5,7 18 10 32 17 ZZW 1023,4 3,7 0 0,7
20.02.2017 20:00:00 8,8 5,0 6,8 6,6 6,3 5,7 22 12 41 22 ZZW 1023,0 10 0 0,1
20.02.2017 19:00:00 9,5 4,1 8,4 6,7 6,3 5,7 20 11 35 19 ZZW 1023,2 21 0 0,0
20.02.2017 18:00:00 9,3 4,5 8,4 7,1 6,3 5,7 21 11 39 21 ZZW 1023,1 21 0 0,0
20.02.2017 17:00:00 9,5 4,4 8,9 7,6 6,2 5,7 23 12 38 20 ZZW 1023,2 23 0 0,0
20.02.2017 16:00:00 9,9 4,4 9,5 8,1 6,0 5,7 24 13 37 20 ZW 1023,2 23 0 0,0
20.02.2017 15:00:00 9,7 4,6 9,9 8,7 5,8 5,7 27 14 40 22 ZZW 1023,5 21 0 0,0
20.02.2017 14:00:00 9,5 4,6 10,7 8,9 5,5 5,7 32 17 46 25 ZZW 1024,2 25 3 0,0
20.02.2017 13:00:00 9,3 4,5 11,3 7,8 5,2 5,7 24 13 37 20 ZW 1025,1 21 0 0,0
20.02.2017 12:00:00 8,2 4,3 8,8 6,9 5,0 5,7 24 13 34 19 ZZW 1026,1 20 0 0,0
20.02.2017 11:00:00 7,6 4,1 7,7 6,3 4,8 5,7 21 12 36 19 ZW 1026,4 12 0 0,0
20.02.2017 10:00:00 7,6 3,9 8,0 5,6 4,7 5,7 26 14 38 21 ZZW 1025,8 16 0 0,0
20.02.2017 09:00:00 7,1 3,4 6,7 4,7 4,7 5,7 21 11 32 17 ZZW 1025,5 18 0 0,0
20.02.2017 08:00:00 7,0 3,0 6,0 4,3 4,7 5,7 16 9 27 15 ZZW 1025,5 17 0 0,0
20.02.2017 07:00:00 6,7 2,9 5,8 4,2 4,7 5,7 15 8 28 15 ZW 1025,1 16 0 0,0
20.02.2017 06:00:00 6,8 2,3 5,8 4,1 4,8 5,7 14 8 21 11 ZW 1025,1 18 0 0,0
20.02.2017 05:00:00 6,6 2,0 5,6 4,1 4,8 5,7 17 9 27 15 ZZW 1024,7 19 0 0,0
20.02.2017 04:00:00 6,4 2,0 4,8 4,2 4,8 5,7 6 3 19 10 W 1025,0 25 0 0,0
20.02.2017 03:00:00 6,8 2,0 5,6 4,2 4,9 5,7 10 5 16 8 ZW 1025,4 24 0 0,0
20.02.2017 02:00:00 6,4 2,0 5,1 4,1 4,9 5,6 8 4 11 6 ZZW 1025,6 26 0 0,0
20.02.2017 01:00:00 5,4 1,8 3,8 4,2 5,0 5,6 6 4 8 4 WZW 1025,9 27 0 0,0
20.02.2017 00:00:00 6,0 1,7 4,6 4,2 5,1 5,6 4 2 6 4 ZW 1026,0 28 0 0,0
19.02.2017 23:00:00 6,8 1,4 4,0 4,3 5,2 5,6 3 2 11 6 Z 1025,5 29 0 0,0
19.02.2017 22:00:00 7,0 1,5 5,3 4,3 5,3 5,6 8 4 14 8 Z 1025,1 31 0 0,0
19.02.2017 21:00:00 7,6 1,2 5,3 4,2 5,5 5,6 9 5 23 12 ZW 1024,6 27 0 0,0
19.02.2017 20:00:00 8,0 1,0 5,1 4,4 5,7 5,6 16 8 21 11 ZZW 1024,3 31 0 0,0
19.02.2017 19:00:00 8,0 1,1 4,8 5,4 5,7 5,6 12 7 21 12 ZZW 1024,0 29 0 0,0
19.02.2017 18:00:00 9,8 2,1 7,8 6,8 5,6 5,6 15 8 29 16 ZW 1023,3 29 7 0,0
19.02.2017 17:00:00 10,9 2,1 10,7 8,2 5,3 5,6 22 12 35 19 ZZW 1023,1 36 60 0,0
19.02.2017 16:00:00 11,3 3,1 13,1 8,7 4,9 5,6 6 4 18 10 ZW 1023,6 25 20 0,0
19.02.2017 15:00:00 10,0 2,0 11,0 9,0 4,4 5,6 9 5 23 12 WZW 1024,3 25 12 0,0
19.02.2017 14:00:00 9,7 2,1 11,1 8,6 3,7 5,6 11 6 23 13 ZZW 1024,8 24 21 0,0
19.02.2017 13:00:00 9,1 1,7 12,4 7,5 3,2 5,6 17 9 23 13 WZW 1025,6 24 58 0,0
19.02.2017 12:00:00 7,9 1,5 9,7 4,2 3,0 5,6 6 3 11 6 WZW 1026,2 19 60 0,0
19.02.2017 11:00:00 4,7 0,7 6,5 0,5 3,1 5,6 2 1 10 6 W 1026,8 17 60 0,0
19.02.2017 10:00:00 2,2 0,7 5,0 0,4 3,2 5,6 7 4 9 5 NNW 1026,9 13 60 0,0
19.02.2017 09:00:00 -0,9 -1,4 0,9 0,4 3,3 5,6 0 0 4 2 N 1027,0 6 42 0,0
19.02.2017 08:00:00 -3,7 -4,0 -5,8 0,5 3,5 5,6 3 1 6 3 W 1027,1 4,4 0 0,0
19.02.2017 07:00:00 -2,9 -2,9 -5,8 0,6 3,6 5,6 2 1 5 3 OZO 1026,8 7 0 0,0
19.02.2017 06:00:00 -3,3 -3,6 -6,1 0,7 3,8 5,5 0 0 5 3 N 1027,1 6 0 0,0
19.02.2017 05:00:00 -2,5 -2,5 -5,3 0,8 4,0 5,5 2 1 5 3 NO 1026,8 6 0 0,0
19.02.2017 04:00:00 -2,7 -2,8 -5,2 0,9 4,2 5,5 2 1 4 2 NO 1026,8 3,7 0 0,0
19.02.2017 03:00:00 -2,2 -2,2 -5,1 1,0 4,4 5,5 0 0 3 1 N 1027,1 0,2 0 0,0
19.02.2017 02:00:00 -1,9 -1,9 -4,1 1,1 4,7 5,5 2 1 3 2 WZW 1027,3 0,6 0 0,0
19.02.2017 01:00:00 -2,1 -2,3 -4,3 1,2 5,0 5,5 3 2 4 2 ZZO 1027,5 0,9 0 0,0
19.02.2017 00:00:00 -1,8 -2,0 -3,4 1,4 5,4 5,5 2 1 4 2 WNW 1027,1 1,2 0 0,0
18.02.2017 23:00:00 0,1 0,0 -3,3 1,6 5,8 5,5 2 1 4 2 NNO 1026,9 10 0 0,0
18.02.2017 22:00:00 0,1 -0,6 -2,7 2,4 6,2 5,5 4 2 10 6 NNW 1027,0 15 0 0,0
18.02.2017 21:00:00 2,6 0,2 -1,7 3,3 6,6 5,5 6 3 10 5 ZO 1026,5 31 0 0,0
18.02.2017 20:00:00 2,7 1,0 -1,6 4,5 6,9 5,5 2 1 4 2 Z 1026,5 17 0 0,0
18.02.2017 19:00:00 4,8 1,8 -0,4 5,9 7,1 5,5 3 2 6 4 ZW 1026,3 20 0 0,0
18.02.2017 18:00:00 7,1 2,0 3,1 7,8 7,1 5,5 5 3 14 8 NNW 1025,8 38 11 0,0
18.02.2017 17:00:00 10,1 2,9 11,2 9,7 6,9 5,4 9 5 14 8 NW 1025,1 37 37 0,0
18.02.2017 16:00:00 10,4 2,4 12,2 10,4 6,5 5,4 7 4 17 9 NO 1025,1 37 20 0,0

tt = temperatuur
td = dauwpunt
tt 5cm = temperatuur 5cm
tt -5cm = temperatuur -5cm
tt -20cm = temperatuur -20cm
tt -100cm = temperatuur -100cm
ff = windsnelheid
fx = windstoten
dd = windrichting
ppp = luchtdruk
vv = zicht
sd = Zonneschijnduur
rr = neerslag

Weerstations in de omgeving